Weather History for Cork, Ireland

Change the Weather History Date:

Saturday, November 9, 2013

  Actual Average Record
Temperature  
Mean Temperature 40 °F -  
Max Temperature 47 °F 49 °F 57 °F (2002)
Min Temperature 34 °F 39 °F 33 °F (2001)
Degree Days  
Heating Degree Days 24    
Moisture  
Dew Point 40 °F    
Average Humidity 93    
Maximum Humidity 100    
Minimum Humidity 82    
Precipitation  
Precipitation 0.12 in 0.15 in - ()
Sea Level Pressure  
Sea Level Pressure 29.66 in    
Wind  
Wind Speed 6 mph ()    
Max Wind Speed 12 mph    
Max Gust Speed -    
Visibility 5.9 miles    
Events Rain    
Averages and records for this station are not official NWS values.
T = Trace of Precipitation, MM = Missing Value Source: Averaged Metar Reports

Daily Weather History Graph

Daily Weather History Graph

Search for Another Location

Airport:

Trip Planner

Search our weather history database for the weather conditions in past years. The results will help you decide how hot, cold, wet, or windy it might be!

Date:

Astronomy

Nov. 09, 2013 Rise Set
Actual Time 7:42 AM GMT 4:51 PM GMT
Civil Twilight 7:06 AM GMT 5:28 PM GMT
Nautical Twilight 6:25 AM GMT 6:08 PM GMT
Astronomical Twilight 5:46 AM GMT 6:48 PM GMT
Moon 1:05 PM GMT (11/9) 11:15 PM GMT (11/9)
Length of Visible Light 10h 22m
Length of Day
9h 09m
Waxing Crescent, 41% of the Moon is Illuminated
Nov 9
Waxing Crescent
Nov 10
First Quarter
Nov 17
Full
Nov 25
Last Quarter
Dec 3
New

Hourly Weather History & Observations

Time (GMT) Temp. Windchill Dew Point Humidity Pressure Visibility Wind Dir Wind Speed Gust Speed Precip Events Conditions
12:00 AM 37 °F - 34 °F 86% 29.73 in 25 mi WSW 8.9 mph - -   Scattered Clouds
12:00 AM 37.4 °F 31.4 °F 33.8 °F 87% 29.71 in 6.2 mi WSW 8.1 mph - N/A   Partly Cloudy
12:30 AM 37.4 °F 32.1 °F 35.6 °F 93% 29.68 in 6.2 mi SW 6.9 mph - N/A   Partly Cloudy
1:00 AM 37.4 °F 32.8 °F 35.6 °F 93% 29.71 in 6.2 mi SSW 5.8 mph - N/A   Partly Cloudy
1:30 AM 39.2 °F 35.0 °F 37.4 °F 93% 29.68 in 6.2 mi SSW 5.8 mph - N/A   Partly Cloudy
2:00 AM 41.0 °F 37.1 °F 39.2 °F 93% 29.68 in 6.2 mi WNW 5.8 mph - N/A   Mostly Cloudy
2:30 AM 41.0 °F 35.8 °F 37.4 °F 87% 29.65 in 6.2 mi West 8.1 mph - N/A   Mostly Cloudy
3:00 AM 39.2 °F 35.0 °F 37.4 °F 93% 29.65 in 6.2 mi NW 5.8 mph - N/A   Mostly Cloudy
3:30 AM 39.2 °F - 35.6 °F 87% 29.65 in 6.2 mi Calm Calm - N/A   Mostly Cloudy
4:00 AM 37.4 °F 34.9 °F 37.4 °F 100% 29.65 in 6.2 mi WSW 3.5 mph - N/A   Mostly Cloudy
4:30 AM 37.4 °F 34.9 °F 37.4 °F 100% 29.65 in 6.2 mi West 3.5 mph - N/A   Mostly Cloudy
5:00 AM 39.2 °F 35.0 °F 37.4 °F 93% 29.65 in 6.2 mi West 5.8 mph - N/A   Partly Cloudy
5:30 AM 39.2 °F 34.2 °F 37.4 °F 93% 29.65 in 6.2 mi West 6.9 mph - N/A   Partly Cloudy
6:00 AM 38 °F - 37 °F 93% 29.70 in 25 mi West 6.7 mph - -   Scattered Clouds
6:00 AM 37.4 °F 32.8 °F 37.4 °F 100% 29.68 in 6.2 mi West 5.8 mph - N/A   Partly Cloudy
6:30 AM 37.4 °F 33.8 °F 35.6 °F 93% 29.68 in 6.2 mi West 4.6 mph - N/A   Partly Cloudy
7:00 AM 37.4 °F 34.9 °F 35.6 °F 93% 29.68 in 6.2 mi WSW 3.5 mph - N/A   Partly Cloudy
7:30 AM 39.2 °F 35.9 °F 37.4 °F 93% 29.68 in 6.2 mi West 4.6 mph - N/A   Partly Cloudy
8:00 AM 39.2 °F 35.9 °F 35.6 °F 87% 29.68 in 6.2 mi West 4.6 mph - N/A   Partly Cloudy
8:30 AM 37.4 °F 33.8 °F 33.8 °F 87% 29.68 in 6.2 mi WSW 4.6 mph - N/A   Partly Cloudy
9:00 AM 39.2 °F 37.0 °F 37.4 °F 93% 29.68 in 6.2 mi West 3.5 mph - N/A   Scattered Clouds
9:30 AM 41.0 °F 39.0 °F 39.2 °F 93% 29.68 in 6.2 mi SW 3.5 mph - N/A   Mostly Cloudy
10:00 AM 42.8 °F 39.3 °F 41.0 °F 93% 29.68 in 6.2 mi SW 5.8 mph - N/A   Mostly Cloudy
10:30 AM 44.6 °F 40.7 °F 41.0 °F 87% 29.68 in 6.2 mi SSW 6.9 mph - N/A   Mostly Cloudy
11:00 AM 44.6 °F 39.7 °F 41.0 °F 87% 29.68 in 6.2 mi SW 9.2 mph - N/A   Mostly Cloudy
11:30 AM 44.6 °F 39.7 °F 41.0 °F 87% 29.68 in 6.2 mi WSW 9.2 mph - N/A   Mostly Cloudy
12:00 PM 46 °F - 42 °F 82% 29.70 in 28 mi SW 8.9 mph - -   Scattered Clouds
12:00 PM 46.4 °F 41.9 °F 42.8 °F 87% 29.68 in 6.2 mi SW 9.2 mph - N/A   Mostly Cloudy
12:30 PM 46.4 °F 41.9 °F 42.8 °F 87% 29.65 in 6.2 mi SW 9.2 mph - N/A   Mostly Cloudy
1:00 PM 46.4 °F 42.4 °F 44.6 °F 93% 29.65 in 6.2 mi SW 8.1 mph - N/A Rain Light Rain
1:30 PM 46.4 °F 41.1 °F 44.6 °F 93% 29.62 in 6.2 mi SW 11.5 mph - N/A   Mostly Cloudy
2:00 PM 46.4 °F 41.1 °F 44.6 °F 93% 29.62 in 6.2 mi WSW 11.5 mph - N/A Rain Light Rain
2:30 PM 46.4 °F 41.5 °F 44.6 °F 93% 29.62 in 6.2 mi SW 10.4 mph - N/A   Mostly Cloudy
3:00 PM 46.4 °F 41.9 °F 44.6 °F 93% 29.62 in 6.2 mi WSW 9.2 mph - N/A Rain Light Rain
3:30 PM 46.4 °F 43.5 °F 44.6 °F 93% 29.59 in 6.2 mi WSW 5.8 mph - N/A   Mostly Cloudy
4:00 PM 46.4 °F 44.3 °F 44.6 °F 93% 29.59 in 6.2 mi SW 4.6 mph - N/A Rain Light Rain
4:30 PM 44.6 °F - 44.6 °F 100% 29.59 in 6.2 mi WSW 1.2 mph - N/A Rain Light Rain
5:00 PM 44.6 °F - 44.6 °F 100% 29.56 in 6.2 mi SSE 1.2 mph - N/A Rain Light Rain
5:30 PM 44.6 °F 43.1 °F 44.6 °F 100% 29.56 in 4.3 mi ENE 3.5 mph - N/A Rain Light Rain
6:00 PM 45 °F - 44 °F 97% 29.60 in 1 mi NE 4.5 mph - - Rain Light Rain
6:00 PM 44.6 °F 42.2 °F 44.6 °F 100% 29.56 in 1.4 mi NE 4.6 mph - N/A Rain Light Rain
6:30 PM 44.6 °F 40.2 °F 42.8 °F 93% 29.59 in 3.7 mi North 8.1 mph - N/A Rain Light Rain
7:00 PM 44.6 °F 41.4 °F 42.8 °F 93% 29.59 in 6.2 mi North 5.8 mph - N/A   Mostly Cloudy
7:30 PM 44.6 °F 40.7 °F 42.8 °F 93% 29.59 in 6.2 mi North 6.9 mph - N/A   Mostly Cloudy
8:00 PM 44.6 °F 40.2 °F 42.8 °F 93% 29.62 in 6.2 mi NNW 8.1 mph - N/A   Mostly Cloudy
8:30 PM 44.6 °F 39.7 °F 44.6 °F 100% 29.65 in 6.2 mi NW 9.2 mph - N/A   Mostly Cloudy
9:00 PM 42.8 °F 38.0 °F 42.8 °F 100% 29.65 in 6.2 mi NW 8.1 mph - N/A   Mostly Cloudy
9:30 PM 42.8 °F 37.5 °F 42.8 °F 100% 29.68 in 6.2 mi NW 9.2 mph - N/A   Mostly Cloudy
10:00 PM 42.8 °F 38.0 °F 42.8 °F 100% 29.71 in 6.2 mi NW 8.1 mph - N/A   Mostly Cloudy
10:30 PM 42.8 °F 38.6 °F 41.0 °F 93% 29.74 in 6.2 mi NW 6.9 mph - N/A   Mostly Cloudy
11:00 PM 42.8 °F 38.6 °F 42.8 °F 100% 29.74 in 6.2 mi NW 6.9 mph - N/A   Mostly Cloudy
11:30 PM 42.8 °F 37.5 °F 41.0 °F 93% 29.77 in 6.2 mi WNW 9.2 mph - N/A   Mostly Cloudy